Location: *
(40.7873°S, 98.7174°E)
Time: 15:17:20
(UTC+00:00)

Hubble Space Telescope - Visible Passes

Search period start: 16 August 2022 00:00
Search period end: 26 August 2022 00:00
Orbit: 532 x 535 km, 28.5° (Epoch: 16 August)

Date Brightness Start Highest point End Pass type
(mag) Time Alt. Az. Time Alt. Az. Time Alt. Az.
16 Aug 3.3 21:52:07 13° NNE 21:52:07 13° NNE 21:53:14 10° NE visible
16 Aug 3.2 23:29:30 10° NW 23:31:16 12° N 23:33:02 10° NNE visible
17 Aug 3.6 21:40:44 11° NNE 21:40:44 11° NNE 21:41:06 10° NE visible
17 Aug 3.2 23:17:44 10° NNW 23:19:05 11° NNW 23:20:25 10° N visible
18 Aug 3.3 23:06:30 10° NNW 23:06:53 10° NNW 23:07:15 10° N visible
